DW8534 Weather Reports


Display with metric or nautical units.
time (UTC)temp
F
wind
direction
speed
MPH
gust
MPH
rain 1hr
in
rain 24hr
in
rain mn
in
humidity
%
barometer
mb
20260903064538 76 107 0.0 0.0 0.00 0.00 0.00 83 1008.6
20260903063037 77 107 0.0 0.0 0.00 0.00 0.00 82 1008.6
20260903061535 77 107 0.0 0.0 0.00 0.00 0.00 81 1008.7
20260903060033 78 107 0.0 0.0 0.00 0.00 0.00 79 1008.9
20260903054531 78 107 1.0 0.0 0.00 0.00 0.00 79 1009.1
20260903053028 78 107 2.0 0.0 0.00 0.00 0.00 78 1009.1
20260903051546 79 105 2.0 0.0 0.00 0.00 0.00 77 1009.2
20260903050025 79 101 3.0 0.0 0.00 0.00 0.00 76 1009.1
20260903044533 79 106 4.0 0.0 0.00 0.00 0.00 75 1009.1
20260903043103 80 86 4.0 0.0 0.00 0.00 0.00 74 1008.9
20260903041524 81 102 6.0 0.0 0.00 0.00 0.00 72 1008.8
20260903040024 81 90 6.0 0.0 0.00 0.00 0.00 71 1008.8
20260903034535 81 76 7.0 0.0 0.00 0.00 0.00 70 1008.7
20260903033023 82 103 7.0 0.0 0.00 0.00 0.00 70 1008.8
20260903031523 83 98 7.0 0.0 0.00 0.00 0.00 69 1008.7
20260903030021 83 95 9.0 0.0 0.00 0.00 0.00 68 1008.6
20260903024525 84 79 9.0 0.0 0.00 0.00 0.00 67 1008.4
20260903023020 85 99 9.0 0.0 0.00 0.00 0.00 65 1008.1
20260903021520 85 78 6.0 0.0 0.00 0.00 0.00 64 1008.1
20260903020023 86 96 6.0 0.0 0.00 0.00 0.00 62 1008.0
20260903014522 87 82 7.0 0.0 0.00 0.00 0.00 60 1007.8
20260903013021 87 77 8.0 0.0 0.00 0.00 0.00 59 1007.6
20260903011519 88 108 6.0 0.0 0.00 0.00 0.00 59 1007.6
20260903010018 89 103 7.0 0.0 0.00 0.00 0.00 58 1007.5
20260903004517 90 106 6.0 0.0 0.00 0.00 0.00 57 1007.4
20260903003017 90 135 7.0 0.0 0.00 0.00 0.00 56 1007.3
20260903001518 91 123 8.0 0.0 0.00 0.00 0.00 53 1007.3
20260903000016 93 103 10.0 0.0 0.00 0.00 0.00 48 1007.2
20260902234522 93 84 11.0 0.0 0.00 0.00 0.00 46 1007.0
20260902233019 94 121 9.0 0.0 0.00 0.00 0.00 47 1007.0
20260902231515 94 98 11.0 0.0 0.00 0.00 0.00 48 1007.0
20260902230014 97 61 7.0 0.0 0.00 0.00 0.00 41 1006.7
20260902224518 97 88 8.0 0.0 0.00 0.00 0.00 41 1006.7
20260902223023 98 56 7.0 0.0 0.00 0.00 0.00 40 1006.7
20260902221517 98 63 6.0 0.0 0.00 0.00 0.00 39 1006.7
20260902220012 99 64 4.0 0.0 0.00 0.00 0.00 40 1007.0
20260902214511 98 40 6.0 0.0 0.00 0.00 0.00 40 1007.0
20260902213011 97 47 6.0 0.0 0.00 0.00 0.00 40 1007.1
20260902211511 98 26 6.0 0.0 0.00 0.00 0.00 39 1007.3
20260902210009 97 55 7.0 0.0 0.00 0.00 0.00 41 1007.6
20260902204513 98 67 4.0 0.0 0.00 0.00 0.00 40 1007.6
20260902203009 96 59 8.0 0.0 0.00 0.00 0.00 43 1007.9
20260902201507 97 62 9.0 0.0 0.00 0.00 0.00 41 1008.0
20260902200006 97 50 8.0 0.0 0.00 0.00 0.00 41 1008.1
20260902194508 99 40 2.0 0.0 0.00 0.00 0.00 41 1008.3
20260902193002 97 23 3.0 0.0 0.00 0.00 0.00 43 1008.6
20260902191604 97 61 3.0 0.0 0.00 0.00 0.00 43 1009.0
20260902190104 96 11 5.0 0.0 0.00 0.00 0.00 43 1009.2
20260902184556 96 65 4.0 0.0 0.00 0.00 0.00 44 1009.6
20260902183101 94 75 3.0 0.0 0.00 0.00 0.00 48 1009.7
20260902181552 94 107 4.0 0.0 0.00 0.00 0.00 48 1009.9
20260902180050 94 66 3.0 0.0 0.00 0.00 0.00 49 1010.3
20260902174549 93 61 4.0 0.0 0.00 0.00 0.00 51 1010.6
20260902173047 92 342 4.0 0.0 0.00 0.00 0.00 52 1010.8
20260902171544 92 28 4.0 0.0 0.00 0.00 0.00 53 1011.1
20260902170040 91 66 4.0 0.0 0.00 0.00 0.00 56 1011.3
20260902164538 90 90 4.0 0.0 0.00 0.00 0.00 56 1011.5
20260902163037 90 66 4.0 0.0 0.00 0.00 0.00 57 1011.6
20260902161542 89 61 3.0 0.0 0.00 0.00 0.00 59 1011.7
20260902160033 88 90 3.0 0.0 0.00 0.00 0.00 61 1011.8
20260902154528 86 24 1.0 0.0 0.00 0.00 0.00 64 1011.8
20260902153023 86 25 2.0 0.0 0.00 0.00 0.00 66 1011.8
20260902151520 84 90 2.0 0.0 0.00 0.00 0.00 68 1011.8
20260902150017 84 63 2.0 0.0 0.00 0.00 0.00 70 1011.8
20260902144516 83 67 3.0 0.0 0.00 0.00 0.00 71 1011.8
20260902143016 83 86 2.0 0.0 0.00 0.00 0.00 73 1011.8
20260902141522 82 89 3.0 0.0 0.00 0.00 0.00 74 1011.7
20260902140015 81 90 2.0 0.0 0.00 0.00 0.00 76 1011.7
20260902134514 80 88 3.0 0.0 0.00 0.00 0.00 77 1011.7
20260902133013 79 101 2.0 0.0 0.00 0.00 0.00 77 1011.7
20260902131521 78 101 3.0 0.0 0.00 0.00 0.00 79 1011.7
20260902130013 77 90 4.0 0.0 0.00 0.00 0.00 82 1011.4
20260902124510 76 114 2.0 0.0 0.00 0.00 0.00 82 1011.3
20260902123011 75 117 1.0 0.0 0.00 0.00 0.00 83 1011.0
20260902121510 75 117 0.0 0.0 0.00 0.00 0.00 82 1010.9
20260902120009 75 117 0.0 0.0 0.00 0.00 0.00 82 1010.9
20260902114518 76 117 1.0 0.0 0.00 0.00 0.00 82 1010.8
20260902113010 76 117 2.0 0.0 0.00 0.00 0.00 81 1011.0
20260902111506 76 117 1.0 0.0 0.00 0.00 0.00 81 1011.0
20260902110011 76 117 2.0 0.0 0.00 0.00 0.00 80 1010.8
20260902104506 77 119 0.0 0.0 0.00 0.00 0.00 79 1010.8
20260902103002 77 119 0.0 0.0 0.00 0.00 0.00 78 1010.8
20260902101500 77 119 2.0 0.0 0.00 0.00 0.00 78 1010.9
20260902100100 78 119 2.0 0.0 0.00 0.00 0.00 77 1010.8
20260902094558 78 119 1.0 0.0 0.00 0.00 0.00 77 1010.9
20260902093056 78 119 0.0 0.0 0.00 0.00 0.00 76 1010.7
20260902091556 78 119 0.0 0.0 0.00 0.00 0.00 76 1010.7
20260902090058 79 119 0.0 0.0 0.00 0.00 0.00 75 1010.7
20260902084559 79 119 0.0 0.0 0.00 0.00 0.00 75 1010.6
20260902083053 79 119 0.0 0.0 0.00 0.00 0.00 75 1010.7
20260902081552 79 119 0.0 0.0 0.00 0.00 0.00 74 1010.7
20260902074548 80 119 2.0 0.0 0.00 0.00 0.00 73 1010.8
20260902073045 81 116 2.0 0.0 0.00 0.00 0.00 71 1010.8
20260902071544 81 117 2.0 0.0 0.00 0.00 0.00 71 1010.7
20260902070044 81 107 2.0 0.0 0.00 0.00 0.00 71 1011.0